Location: Hungerford
(51.4167°N, 1.5167°W)
Time: 05:04:38
(UTC+00:00)

Cosmos 1269 Rocket - Pass Details

Date: 18 September 2020
Orbit: 772 x 780 km, 74.1° (Epoch: 20 October)

Event Time Altitude Azimuth Distance (km) Brightness Sun altitude
Rises 21:13:50 0° 332° (NNW) 3,275 8.4 -26.6°
Reaches altitude 10° 21:16:16 10° 328° (NNW) 2,343 7.4 -26.9°
Maximum altitude 21:21:26 53° 252° (WSW) 955 4.5 -27.4°
Enters shadow 21:21:57 51° 231° (SW) 979 4.5 -27.5°
